TimeCDT,TemperatureF,Dew PointF,Humidity,Sea Level PressureIn,VisibilityMPH,Wind Direction,Wind SpeedMPH,Gust SpeedMPH,PrecipitationIn,Events,Conditions,WindDirDegrees,DateUTC
12:13 AM,58.3,55.0,89,29.67,10.0,NW,17.3,24.2,N/A,,Overcast,310,2014-06-12 05:13:00
12:33 AM,57.6,54.3,89,29.67,10.0,NW,17.3,24.2,N/A,,Mostly Cloudy,310,2014-06-12 05:33:00
12:52 AM,57.4,54.1,89,29.69,10.0,WNW,17.3,25.3,N/A,,Mostly Cloudy,300,2014-06-12 05:52:00
1:13 AM,57.4,53.2,86,29.70,10.0,WNW,19.6,28.8,N/A,,Overcast,300,2014-06-12 06:13:00
1:33 AM,55.9,51.6,85,29.70,10.0,NW,24.2,28.8,N/A,,Overcast,310,2014-06-12 06:33:00
1:52 AM,55.8,50.5,83,29.72,10.0,NW,19.6,33.4,N/A,,Overcast,310,2014-06-12 06:52:00
2:13 AM,55.6,50.2,82,29.74,10.0,NW,20.7,28.8,N/A,,Overcast,310,2014-06-12 07:13:00
2:32 AM,55.4,49.8,81,29.75,10.0,NW,20.7,26.5,N/A,,Overcast,310,2014-06-12 07:32:00
2:53 AM,55.6,49.3,79,29.77,10.0,NW,19.6,27.6,N/A,,Overcast,310,2014-06-12 07:53:00
3:13 AM,55.0,48.0,77,29.77,10.0,NW,17.3,24.2,N/A,,Overcast,310,2014-06-12 08:13:00
3:32 AM,54.9,47.3,76,29.77,10.0,NW,19.6,25.3,N/A,,Overcast,310,2014-06-12 08:32:00
3:53 AM,54.5,47.3,77,29.78,10.0,WNW,17.3,24.2,N/A,,Overcast,300,2014-06-12 08:53:00
4:13 AM,53.8,48.6,82,29.79,10.0,WNW,15.0,-,N/A,,Overcast,300,2014-06-12 09:13:00
4:32 AM,53.6,48.6,83,29.80,10.0,WNW,13.8,19.6,N/A,,Scattered Clouds,290,2014-06-12 09:32:00
4:53 AM,52.9,48.4,85,29.79,10.0,WNW,13.8,-,N/A,,Mostly Cloudy,290,2014-06-12 09:53:00
5:13 AM,52.7,48.6,86,29.78,10.0,WNW,15.0,23.0,N/A,,Mostly Cloudy,290,2014-06-12 10:13:00
5:32 AM,53.1,48.2,84,29.79,10.0,WNW,21.9,27.6,N/A,,Overcast,300,2014-06-12 10:32:00
5:53 AM,53.2,47.5,81,29.79,10.0,WNW,17.3,25.3,N/A,,Overcast,300,2014-06-12 10:53:00
6:13 AM,52.9,47.7,82,29.80,10.0,WNW,17.3,26.5,N/A,,Overcast,300,2014-06-12 11:13:00
6:32 AM,52.7,47.3,82,29.82,10.0,WNW,15.0,21.9,N/A,,Overcast,290,2014-06-12 11:32:00
6:53 AM,52.7,47.3,82,29.84,10.0,WNW,17.3,20.7,N/A,,Overcast,290,2014-06-12 11:53:00
7:13 AM,52.7,46.0,78,29.84,10.0,WNW,15.0,25.3,N/A,,Overcast,300,2014-06-12 12:13:00
7:33 AM,52.7,46.4,79,29.86,10.0,WNW,15.0,19.6,N/A,,Overcast,290,2014-06-12 12:33:00
7:53 AM,52.0,44.8,76,29.87,10.0,WNW,17.3,25.3,N/A,,Overcast,300,2014-06-12 12:53:00
8:13 AM,52.9,44.8,74,29.87,10.0,WNW,19.6,27.6,N/A,,Scattered Clouds,300,2014-06-12 13:13:00
8:33 AM,52.3,45.3,77,29.88,10.0,WNW,17.3,25.3,N/A,,Mostly Cloudy,300,2014-06-12 13:33:00
9:33 AM,52.0,44.2,75,29.89,10.0,WNW,20.7,29.9,N/A,,Overcast,300,2014-06-12 14:33:00
9:53 AM,52.7,44.8,74,29.89,10.0,WNW,21.9,31.1,N/A,,Overcast,290,2014-06-12 14:53:00
10:12 AM,52.7,45.3,76,29.90,10.0,WNW,25.3,31.1,N/A,,Overcast,300,2014-06-12 15:12:00
10:33 AM,52.7,45.5,76,29.91,10.0,WNW,21.9,28.8,N/A,,Overcast,290,2014-06-12 15:33:00
10:53 AM,52.7,46.0,78,29.91,10.0,WNW,18.4,28.8,N/A,,Overcast,300,2014-06-12 15:53:00
11:12 AM,53.1,45.5,75,29.91,10.0,WNW,21.9,25.3,N/A,,Overcast,300,2014-06-12 16:12:00
11:33 AM,53.2,44.2,72,29.92,10.0,WNW,17.3,31.1,N/A,,Overcast,290,2014-06-12 16:33:00
11:53 AM,53.2,45.9,76,29.93,10.0,WNW,18.4,24.2,N/A,,Overcast,290,2014-06-12 16:53:00
12:12 PM,53.4,44.8,73,29.93,10.0,WNW,21.9,29.9,N/A,,Overcast,300,2014-06-12 17:12:00
12:33 PM,54.0,44.4,70,29.93,10.0,West,19.6,28.8,N/A,,Overcast,280,2014-06-12 17:33:00
12:53 PM,53.8,44.6,71,29.94,10.0,WNW,18.4,25.3,N/A,,Overcast,300,2014-06-12 17:53:00
1:12 PM,54.0,44.4,70,29.94,10.0,WNW,19.6,25.3,N/A,,Overcast,300,2014-06-12 18:12:00
1:33 PM,55.0,44.6,68,29.94,10.0,WNW,24.2,31.1,N/A,,Overcast,300,2014-06-12 18:33:00
1:53 PM,55.2,44.4,67,29.94,10.0,NW,15.0,31.1,N/A,,Overcast,310,2014-06-12 18:53:00
2:12 PM,55.9,44.6,66,29.94,10.0,WNW,24.2,32.2,N/A,,Overcast,300,2014-06-12 19:12:00
2:33 PM,56.3,45.7,68,29.94,10.0,NW,23.0,27.6,N/A,,Overcast,310,2014-06-12 19:33:00
2:53 PM,56.8,44.6,64,29.95,10.0,NW,19.6,29.9,N/A,,Overcast,320,2014-06-12 19:53:00
3:12 PM,57.9,45.1,62,29.95,10.0,NW,19.6,28.8,N/A,,Overcast,310,2014-06-12 20:12:00
3:53 PM,60.4,45.3,57,29.95,10.0,NW,19.6,24.2,N/A,,Mostly Cloudy,310,2014-06-12 20:53:00
4:12 PM,60.8,45.1,56,29.94,10.0,NW,19.6,26.5,N/A,,Mostly Cloudy,320,2014-06-12 21:12:00
4:33 PM,61.0,45.0,56,29.94,10.0,NW,19.6,25.3,N/A,,Mostly Cloudy,320,2014-06-12 21:33:00
4:52 PM,61.9,43.5,51,29.94,10.0,NNW,18.4,26.5,N/A,,Scattered Clouds,330,2014-06-12 21:52:00
5:13 PM,62.8,43.9,50,29.94,10.0,NNW,15.0,25.3,N/A,,Mostly Cloudy,340,2014-06-12 22:13:00
5:33 PM,62.6,42.8,48,29.94,10.0,NNW,21.9,26.5,N/A,,Scattered Clouds,330,2014-06-12 22:33:00
5:52 PM,63.9,43.7,48,29.94,10.0,NW,23.0,28.8,N/A,,Scattered Clouds,320,2014-06-12 22:52:00
6:13 PM,64.4,43.0,46,29.95,10.0,NW,18.4,24.2,N/A,,Scattered Clouds,320,2014-06-12 23:13:00
6:33 PM,64.2,42.8,46,29.95,10.0,NW,16.1,25.3,N/A,,Scattered Clouds,320,2014-06-12 23:33:00
6:52 PM,63.5,41.7,45,29.95,10.0,NW,19.6,23.0,N/A,,Clear,320,2014-06-12 23:52:00
7:13 PM,63.7,40.8,43,29.96,10.0,NW,12.7,21.9,N/A,,Clear,320,2014-06-13 00:13:00
7:33 PM,63.5,40.3,43,29.96,10.0,NW,13.8,20.7,N/A,,Clear,310,2014-06-13 00:33:00
7:52 PM,62.8,38.7,41,29.97,10.0,NW,16.1,20.7,N/A,,Clear,320,2014-06-13 00:52:00
8:13 PM,62.1,37.8,41,29.97,10.0,NW,11.5,18.4,N/A,,Clear,320,2014-06-13 01:13:00
8:33 PM,61.0,37.9,42,29.97,10.0,NW,10.4,-,N/A,,Clear,320,2014-06-13 01:33:00
8:52 PM,59.5,39.2,47,29.98,10.0,NW,8.1,-,N/A,,Clear,320,2014-06-13 01:52:00
9:13 PM,57.0,39.6,52,29.98,10.0,NW,5.8,-,N/A,,Clear,310,2014-06-13 02:13:00
9:33 PM,55.9,40.6,56,29.99,10.0,NW,5.8,-,N/A,,Clear,310,2014-06-13 02:33:00
9:52 PM,55.0,43.0,64,29.99,10.0,West,3.5,-,N/A,,Clear,260,2014-06-13 02:52:00
10:33 PM,51.4,44.6,77,30.00,10.0,West,3.5,-,N/A,,Clear,260,2014-06-13 03:33:00
10:53 PM,51.4,44.1,76,30.00,10.0,West,4.6,-,N/A,,Clear,260,2014-06-13 03:53:00
11:13 PM,51.4,44.2,76,30.00,10.0,Calm,Calm,-,N/A,,Clear,0,2014-06-13 04:13:00
11:32 PM,50.7,43.7,77,30.00,10.0,West,4.6,-,N/A,,Clear,270,2014-06-13 04:32:00
11:53 PM,50.2,43.7,78,30.01,10.0,West,4.6,-,N/A,,Clear,270,2014-06-13 04:53:00